User: anonymous   Login
Location: Ostrava
(49.8330°N, 18.2830°E)
Time: 23:46:19
(UTC+01:00)
Language:

Cosmos 2219 Rocket - Orbit

View from above orbital plane
View from above orbital plane
View from above satellite
View from above satellite

Ground track
Ground track

The orbit data is extracted from the following two-line orbital elements,

1 22220U 92076B   17055.68505640 -.00000161  00000-0 -57005-4 0  9995
2 22220  71.0002 296.0619 0010512  83.2092 346.2102 14.16412248254840
Epoch (UTC): 24 February 2017 16:26:28
Eccentricity: 0.0010512
inclination: 71.0002°
perigee height: 830 km
apogee height: 845 km
right ascension of ascending node: 296.0619°
argument of perigee: 83.2092°
revolutions per day: 14.16412248
mean anomaly at epoch: 346.2102°
orbit number at epoch: 25484

The dashed part of the orbit path shows where the satellite is in the earth's shadow,  

DLR